Theta_e
348 345 332 323 308 307 299 305 312 316 317 323 325 322 318 322 319 310 330 336 348 350 352 355 359 357 356 356 355 355 354 354 354 353 352 352 352 352 352 353 354 355 355 355 354 353 352 351 351
334 337 327 319 306 298 301 308 310 317 322 327 328 326 325 321 329 330 332 343 348 350 350 353 359 358 356 355 355 355 354 353 353 352 352 352 352 352 352 353 353 352 352 352 353 351 348 347 348
331 332 320 313 303 299 302 309 315 319 324 323 322 327 325 323 331 332 337 343 346 346 349 351 358 358 356 355 355 355 354 354 353 352 352 352 352 352 353 353 353 350 348 350 350 349 346 346 346
326 321 319 307 304 311 310 312 318 319 321 325 326 319 326 333 331 336 340 344 342 344 347 355 359 359 357 355 355 354 353 353 353 351 351 351 352 353 354 353 353 349 346 348 349 351 349 349 349
322 316 310 310 309 314 314 312 321 319 321 323 326 318 320 329 337 338 341 341 341 343 345 352 358 358 357 355 354 355 355 355 354 352 352 352 353 354 354 354 354 350 348 349 350 350 349 349 349
308 312 304 302 310 315 314 319 322 320 320 323 321 320 320 330 336 338 341 338 343 344 348 350 356 359 358 358 357 357 356 355 354 353 353 353 353 352 353 355 354 349 348 347 348 349 350 349 349
303 305 303 307 308 311 315 316 318 318 318 319 325 319 323 328 332 339 339 339 345 346 347 348 349 354 358 358 357 357 355 355 354 352 352 353 354 352 353 354 355 351 347 346 346 348 349 349 349
306 308 305 311 307 307 316 314 316 319 319 327 327 318 318 327 332 338 343 343 343 344 344 344 347 349 349 351 358 357 356 355 353 351 348 346 349 354 353 352 353 352 348 346 346 348 349 350 349
308 301 301 307 307 310 315 312 318 319 322 323 326 325 329 332 333 338 340 339 337 340 339 343 345 344 347 348 352 356 354 353 348 343 343 340 338 341 342 346 350 349 350 347 348 346 345 343 334
304 299 305 311 312 311 315 312 315 313 316 316 325 330 331 331 328 327 330 333 333 335 336 338 340 343 345 346 346 349 345 339 334 333 334 336 337 340 343 343 348 350 347 342 336 337 333 325 318
302 301 308 312 314 317 314 313 317 312 310 319 323 326 329 328 326 326 327 329 334 336 337 336 338 340 341 341 346 342 339 333 333 333 335 332 337 335 329 327 325 320 328 320 320 319 317 316 317
300 306 312 312 319 314 314 317 314 313 314 322 329 330 329 328 327 327 326 324 329 330 334 336 336 336 340 345 343 342 335 331 331 332 333 329 333 333 327 323 320 319 319 318 317 316 316 316 316
300 304 307 312 314 314 318 316 314 313 320 326 329 330 328 328 329 332 335 336 333 331 335 337 338 340 340 342 340 339 335 331 330 332 331 331 331 331 324 321 319 320 319 317 316 315 315 314 314
306 306 305 307 310 316 315 314 314 316 321 325 327 327 328 330 333 332 335 334 337 339 336 340 340 341 342 340 338 338 336 331 332 331 333 334 333 328 322 320 321 320 318 317 316 315 314 313 312
307 306 308 309 312 313 316 311 312 316 319 322 324 325 328 327 328 330 332 330 331 336 340 339 342 345 342 341 340 338 336 333 333 332 335 338 331 326 322 320 319 320 318 318 316 315 314 313 313
306 304 299 306 311 312 307 299 313 315 317 319 323 325 323 325 328 332 336 331 331 331 333 344 349 340 338 334 334 335 334 335 335 333 332 332 330 328 321 321 319 321 319 317 316 313 312 312 311
301 297 300 306 312 310 305 301 311 314 318 319 320 321 324 326 329 332 338 339 335 339 339 338 339 337 335 333 334 332 332 333 332 328 331 332 330 326 322 320 321 322 317 315 315 313 312 310 310
298 298 302 302 308 311 304 303 307 310 315 318 318 321 323 325 328 332 333 338 340 334 334 334 338 337 337 334 333 333 331 328 325 324 327 330 329 325 322 320 320 318 315 315 312 310 310 310 308
303 302 302 305 309 305 300 306 310 312 315 317 318 320 319 324 327 329 333 336 333 330 333 332 327 334 336 335 331 331 329 328 328 329 328 327 329 327 322 321 321 317 315 313 310 310 308 307 307
304 301 300 303 306 306 308 307 310 314 313 315 317 320 320 322 326 331 327 324 323 326 325 324 325 325 335 337 336 335 331 331 330 331 329 328 328 325 324 321 318 316 312 309 309 307 306 306 306
300 300 299 299 303 303 305 303 307 312 314 314 321 320 323 323 325 326 328 321 321 322 324 324 322 326 335 338 335 334 334 330 326 321 322 323 325 324 321 320 316 312 310 309 308 308 309 303 305
299 306 306 305 301 294 304 294 302 307 308 312 311 323 325 324 325 321 325 321 321 322 324 325 327 330 333 334 335 331 328 324 319 319 319 318 320 317 316 314 313 311 313 310 310 313 307 305 303
304 309 306 305 299 299 300 297 300 306 304 308 311 313 317 324 324 325 325 325 326 323 323 324 329 328 327 332 334 329 324 321 321 319 317 316 318 319 318 316 313 313 312 312 313 308 306 306 304
311 306 303 301 298 293 299 298 298 299 302 305 309 316 320 323 323 324 326 325 324 324 325 330 324 322 325 333 332 330 323 319 317 315 314 314 314 317 316 315 315 315 314 312 309 308 310 309 305
306 299 291 291 292 291 299 298 298 304 308 307 310 314 317 317 319 321 320 321 322 323 323 325 327 326 329 333 325 322 318 316 314 313 313 314 314 313 315 315 314 313 313 312 311 311 310 307 306
303 299 292 287 289 291 300 294 298 307 310 312 314 316 316 316 316 318 320 321 319 320 319 318 321 319 321 320 318 318 317 318 317 315 313 311 314 314 312 313 310 310 309 313 311 308 307 309 310
304 299 303 295 295 292 294 299 304 309 309 311 311 312 313 315 318 317 318 318 319 317 316 316 317 316 317 317 315 315 318 316 311 310 309 311 311 310 310 308 308 311 310 306 305 308 309 310 309
305 308 297 297 287 286 293 294 294 302 305 308 309 310 312 314 315 317 317 316 316 315 316 316 315 314 315 314 314 313 311 311 309 308 308 306 306 306 306 305 305 304 307 308 309 309 308 308 306
303 302 303 298 294 288 288 291 302 303 306 306 308 309 310 310 314 315 317 317 315 315 315 315 314 314 313 312 311 310 309 310 309 307 306 306 304 304 304 304 304 307 308 307 306 307 308 307 307
306 303 299 293 293 296 293 293 307 306 308 307 309 311 316 314 313 313 316 316 315 314 314 313 313 312 311 311 309 308 308 307 305 305 304 304 303 303 304 304 306 306 305 304 304 305 307 307 306
Wind_Speed
8 9 4 2 5 5 4 2 6 11 3 1 9 4 4 4 5 5 3 13 17 13 11 12 15 15 14 13 12 10 9 9 8 7 6 5 5 5 5 6 6 7 7 8 8 9 10 10 10
5 6 2 2 7 4 6 3 7 8 6 7 7 5 4 0 4 9 10 11 16 13 9 10 16 14 14 13 12 10 9 8 6 5 4 4 3 3 3 3 3 3 4 5 6 6 6 7 9
1 2 5 5 3 1 4 2 12 13 13 11 5 5 5 5 7 10 10 16 13 12 10 11 16 15 15 13 12 10 9 8 8 6 5 3 3 2 1 1 1 2 2 3 3 4 5 5 7
3 4 6 5 5 5 7 6 15 13 7 7 9 4 4 6 10 9 18 17 14 11 10 15 17 15 14 13 12 11 10 8 6 4 3 1 2 2 2 3 2 2 2 2 3 5 6 7 7
3 4 7 6 9 9 5 2 17 9 5 8 6 4 4 3 12 20 18 17 15 10 6 11 17 15 14 14 13 12 10 8 7 6 5 4 4 4 5 6 5 5 3 3 4 4 6 8 9
4 3 4 3 3 11 7 6 12 8 7 8 6 6 3 5 17 16 16 14 12 15 9 8 15 16 15 14 13 10 7 7 6 4 3 5 5 5 6 8 7 7 4 5 6 8 9 13 10
4 5 6 8 7 6 4 3 12 10 10 6 13 6 5 5 12 15 14 12 10 11 11 8 9 13 15 14 12 10 9 7 6 5 5 4 5 7 8 7 9 9 7 5 6 7 8 10 15
3 6 3 4 7 7 5 1 6 13 9 10 8 7 6 5 7 12 13 12 10 9 9 8 7 7 7 6 11 11 8 6 4 2 4 3 2 8 10 8 8 11 10 5 8 8 8 9 11
4 5 4 6 8 10 6 6 3 1 10 4 4 7 11 9 6 11 10 6 6 6 7 8 7 6 6 5 6 7 8 9 10 8 6 3 1 4 6 8 7 11 10 7 7 7 8 8 11
2 6 12 10 10 9 9 3 6 5 5 3 9 10 12 9 4 12 10 11 9 10 10 8 8 8 7 8 6 5 5 4 5 5 6 4 2 4 7 10 10 8 7 5 8 9 11 10 4
4 5 8 7 9 14 9 6 5 9 3 9 18 15 10 5 3 5 7 10 13 13 7 10 9 8 9 6 5 4 4 4 4 6 4 1 1 4 4 3 3 1 4 3 5 6 4 5 5
4 8 8 7 11 9 13 5 3 4 6 12 19 19 14 6 8 3 7 7 7 4 9 10 10 9 9 5 7 7 5 4 4 3 3 3 3 3 2 1 3 3 2 3 4 3 5 6 6
3 3 6 8 11 11 9 8 7 5 7 19 20 17 17 8 6 6 6 4 6 6 7 7 9 9 11 8 5 6 7 5 3 3 3 3 2 3 5 3 3 3 2 3 3 4 4 5 5
6 6 4 7 8 9 9 3 1 5 11 22 21 20 14 11 3 4 3 10 14 16 12 8 9 9 10 8 9 7 5 4 3 2 3 4 4 4 4 3 2 2 1 2 1 3 3 3 3
3 8 7 8 6 4 8 5 7 4 8 15 19 15 16 11 5 1 5 12 9 15 18 13 5 6 8 10 8 6 5 4 4 4 6 10 6 6 5 4 2 2 1 2 3 3 3 4 4
5 7 5 4 7 4 2 7 16 5 10 10 14 8 6 3 3 2 5 14 9 17 28 7 7 6 6 5 4 4 4 6 5 5 5 6 7 7 4 3 2 2 0 2 2 1 2 3 4
7 1 3 11 3 6 7 4 8 8 13 12 11 9 7 4 5 10 6 9 3 9 8 9 6 5 6 6 5 4 6 5 4 3 3 6 7 5 5 4 4 3 3 2 2 2 2 2 3
5 3 2 1 6 6 8 11 11 4 12 14 12 10 6 10 11 10 8 7 10 24 9 14 10 5 3 2 3 1 1 1 2 3 5 6 5 6 2 4 5 4 2 2 2 2 2 3 3
3 6 3 4 5 4 4 10 7 7 10 12 12 10 10 13 8 10 13 11 16 11 15 6 4 3 4 1 1 0 4 2 3 5 6 6 4 4 5 4 5 4 4 4 3 2 1 2 2
6 5 2 4 5 11 12 8 6 7 4 3 8 7 7 9 4 8 11 8 8 8 6 8 6 3 3 5 2 3 2 3 2 3 2 4 5 5 5 6 5 3 3 2 2 2 0 2 1
4 6 4 1 4 5 6 7 9 8 6 4 5 8 1 12 8 6 6 4 5 6 4 6 4 4 3 3 1 2 1 2 3 3 3 5 4 4 4 3 2 1 1 3 3 2 3 2 3
4 3 2 4 4 3 4 2 7 7 10 9 7 7 7 6 7 6 0 2 6 5 5 5 8 4 4 4 3 1 1 1 1 1 3 5 7 6 5 4 4 3 3 2 3 2 3 3 3
1 6 8 5 7 7 11 8 9 3 10 10 10 9 3 10 10 7 4 8 7 5 5 4 7 6 4 10 5 1 3 2 3 3 6 5 3 4 5 4 2 4 3 3 1 3 3 2 2
2 8 10 6 4 7 5 6 7 5 6 6 9 12 12 13 10 7 5 3 7 6 8 6 6 6 8 11 5 4 6 5 6 5 4 3 2 3 5 4 3 4 2 3 3 4 4 4 4
12 10 6 7 7 4 4 7 7 4 8 6 8 11 10 8 7 6 5 3 6 7 8 6 7 9 9 6 10 10 9 6 4 4 2 4 3 3 3 2 2 3 2 3 4 3 3 5 4
6 6 6 1 1 3 5 2 4 1 8 15 13 12 11 11 9 10 5 5 5 5 6 7 8 9 10 10 7 6 6 4 4 4 4 4 3 3 5 3 5 5 4 4 4 3 4 4 4
5 6 6 5 3 5 3 5 4 17 17 20 19 21 13 9 7 3 7 5 6 5 5 6 8 6 7 7 7 6 6 7 6 6 5 4 4 5 4 5 5 5 5 5 5 3 5 4 4
5 2 4 5 2 3 4 1 2 10 10 10 13 12 9 6 7 6 2 4 4 3 5 8 7 8 7 8 7 8 7 6 4 3 5 4 4 5 5 6 6 6 5 5 5 5 5 4 3
6 5 5 4 4 5 3 3 3 7 5 7 5 5 5 4 6 6 5 6 5 5 6 8 9 9 9 9 7 6 6 6 6 5 5 5 5 6 6 6 6 5 6 6 6 6 5 5 5
2 2 4 5 5 2 5 1 5 5 5 6 5 6 7 7 5 5 5 3 6 7 7 6 6 8 7 6 5 5 5 5 6 6 6 6 6 6 6 6 5 6 6 6 6 6 5 5 5
Wind_Direction
145 169 152 65 53 58 287 257 124 100 73 347 129 149 146 113 160 205 203 158 134 159 156 152 150 148 144 138 131 123 115 108 103 95 86 78 61 49 38 27 21 20 17 15 19 20 10 3 360
155 148 33 43 71 29 292 232 92 110 133 133 100 121 49 287 85 112 100 152 145 154 147 153 155 154 148 142 134 130 127 124 124 125 121 118 107 89 72 56 36 24 21 16 18 16 5 358 352
95 306 60 53 97 288 277 274 111 125 128 129 104 118 121 109 109 150 137 141 152 156 155 164 159 156 152 147 144 143 148 156 161 153 151 147 137 135 124 116 92 30 12 25 13 356 355 341 340
136 35 43 63 305 258 204 258 122 117 108 120 130 90 59 143 143 158 148 150 160 161 167 165 162 157 153 153 157 161 170 173 167 158 157 168 227 205 207 224 225 267 294 317 326 337 334 328 329
39 60 72 340 326 319 334 138 132 136 118 108 107 94 64 3 118 138 151 160 161 163 172 167 159 158 162 166 172 178 175 177 183 188 187 196 220 250 243 228 216 238 267 327 318 322 323 312 320
44 107 108 135 275 287 330 137 120 129 129 113 94 97 143 114 137 155 157 164 173 158 165 167 168 167 172 177 180 182 178 187 193 206 232 253 242 210 232 256 242 244 265 296 310 335 330 324 323
146 117 162 177 182 273 242 256 135 141 152 176 143 113 166 157 155 157 164 155 162 159 158 172 176 179 180 185 180 178 189 194 208 212 229 255 276 258 238 225 259 262 265 277 307 321 319 321 325
108 95 167 321 162 238 274 143 168 157 188 121 152 144 182 220 172 133 141 149 163 165 166 176 175 181 185 189 177 191 190 189 201 219 167 171 323 253 259 241 245 266 275 315 330 320 329 329 340
168 103 211 206 147 226 256 146 237 222 131 201 195 119 155 178 152 123 138 145 150 172 191 183 175 182 186 143 187 189 192 185 188 215 233 231 287 277 278 260 237 265 288 323 336 17 11 9 6
98 145 213 184 175 196 223 95 179 123 133 73 84 92 139 160 183 152 168 172 181 183 200 190 184 180 165 180 165 176 186 236 247 243 232 218 182 260 250 255 229 259 304 34 31 17 17 11 13
202 229 203 178 178 165 183 218 209 146 119 162 137 141 142 172 233 182 169 175 192 203 184 191 182 177 176 167 160 178 191 216 252 242 245 196 29 27 37 52 49 72 54 50 29 12 9 354 11
292 247 162 154 143 146 172 173 233 183 160 126 137 141 144 171 152 137 22 36 14 313 209 197 184 178 180 154 177 179 187 215 243 256 287 13 41 7 280 124 139 106 83 52 36 4 346 12 8
168 286 141 169 130 147 157 196 185 223 139 135 133 136 166 157 153 129 184 94 32 6 273 194 155 170 168 168 167 181 204 217 232 301 340 1 337 301 259 70 70 85 80 56 17 354 9 6 350
285 78 40 62 178 160 145 238 128 246 116 136 146 164 169 161 182 236 66 64 9 353 306 217 180 150 151 178 185 190 197 197 142 229 263 244 235 232 229 172 118 129 127 137 3 27 20 343 328
319 44 16 47 160 175 92 1 244 202 144 145 172 172 168 150 219 45 294 77 353 298 301 224 141 113 138 170 189 196 199 171 172 190 221 226 204 217 210 172 144 196 195 56 37 48 350 332 332
18 62 21 322 152 245 100 278 242 220 129 129 171 119 156 181 158 263 159 114 175 274 283 173 125 112 128 130 143 149 180 171 182 196 198 219 210 214 190 172 181 226 153 88 96 66 313 306 323
6 18 44 343 332 137 213 262 247 113 124 123 110 141 173 213 174 254 179 162 86 332 330 75 98 124 129 121 142 162 174 166 155 144 211 227 212 202 182 184 182 201 177 153 163 195 190 283 303
307 89 55 269 0 327 345 4 23 24 140 131 139 159 175 211 211 206 50 88 126 79 11 337 344 53 67 129 105 94 86 126 169 215 234 220 229 230 191 199 192 196 141 175 198 182 215 216 237
253 144 94 263 259 19 323 50 12 351 82 123 156 183 172 205 216 68 61 113 100 132 136 198 221 102 309 277 241 189 240 236 259 199 213 230 242 253 199 215 222 188 194 192 201 177 351 313 340
95 117 224 282 271 87 76 31 344 30 74 207 158 185 212 205 43 75 82 85 104 153 157 241 196 125 269 253 228 238 192 240 234 284 313 253 268 223 219 233 218 241 143 180 168 124 204 266 237
40 63 7 274 348 96 101 35 9 328 345 95 88 179 176 210 81 80 105 163 187 139 161 225 301 284 25 240 305 338 312 61 17 2 20 17 0 304 308 331 41 57 246 209 227 173 164 229 289
46 255 40 333 24 71 21 22 353 329 327 350 32 136 188 102 82 86 126 184 208 217 241 323 288 323 329 307 277 130 134 53 301 23 33 26 22 52 70 98 135 177 257 252 231 208 206 168 236
309 46 24 4 75 86 355 72 279 335 348 340 336 347 137 121 124 130 218 220 229 235 316 339 302 257 301 314 243 164 113 75 4 24 50 15 344 36 18 61 329 304 299 268 213 268 247 210 211
23 40 33 40 65 51 311 111 303 6 314 30 35 62 87 115 129 162 220 338 305 326 335 344 288 280 294 279 283 13 67 45 52 7 351 331 340 30 35 17 352 330 335 309 290 291 271 255 245
58 49 1 17 19 189 282 59 238 337 1 31 85 62 58 81 102 148 175 233 307 321 293 288 260 276 280 345 36 52 51 42 38 5 17 360 1 7 10 0 331 290 306 290 287 300 263 267 251
63 105 130 102 145 247 349 116 316 222 28 69 71 77 66 52 34 340 320 273 263 285 318 348 43 37 71 63 52 54 62 60 47 34 9 14 11 353 341 335 342 323 295 321 305 274 277 265 256
321 41 176 120 53 67 315 327 307 51 57 61 71 76 80 88 90 257 289 301 326 353 47 95 86 70 75 71 64 62 52 49 44 39 33 9 1 339 337 360 348 339 343 334 307 275 273 266 267
77 65 40 22 78 95 317 331 273 68 90 80 82 91 97 82 91 65 49 59 56 73 59 56 55 65 61 58 52 59 60 64 63 48 27 4 333 342 350 348 350 336 322 326 315 306 293 295 289
356 10 33 110 116 143 173 313 12 139 169 110 142 124 109 58 32 62 53 37 55 64 56 49 49 71 65 59 58 59 42 34 26 22 3 353 344 345 339 342 325 329 327 326 330 317 338 344 318
42 68 87 113 295 73 134 289 346 249 155 132 126 112 63 35 44 80 66 36 54 57 54 59 63 73 68 78 81 59 37 26 27 17 1 350 350 349 342 319 328 338 331 351 1 351 347 336 325